TimeEDT,TemperatureF,Dew PointF,Humidity,Sea Level PressureIn,VisibilityMPH,Wind Direction,Wind SpeedMPH,Gust SpeedMPH,PrecipitationIn,Events,Conditions,WindDirDegrees,DateUTC
12:15 AM,54.5,49.5,83,30.06,10.0,SSE,4.6,-,N/A,,Clear,160,2013-09-30 04:15:00
12:35 AM,56.8,51.3,82,30.05,10.0,SSE,3.5,-,N/A,,Clear,160,2013-09-30 04:35:00
12:55 AM,55.2,50.2,83,30.05,10.0,SSE,3.5,-,N/A,,Clear,160,2013-09-30 04:55:00
1:15 AM,54.5,48.9,81,30.05,10.0,Calm,Calm,-,N/A,,Clear,0,2013-09-30 05:15:00
1:35 AM,54.5,50.0,85,30.05,10.0,Calm,Calm,-,N/A,,Clear,0,2013-09-30 05:35:00
1:55 AM,54.5,50.0,85,30.05,10.0,Calm,Calm,-,N/A,,Clear,0,2013-09-30 05:55:00
2:15 AM,51.8,47.7,86,30.06,10.0,Calm,Calm,-,N/A,,Clear,0,2013-09-30 06:15:00
2:35 AM,54.0,50.4,88,30.05,10.0,Calm,Calm,-,N/A,,Clear,0,2013-09-30 06:35:00
2:55 AM,51.6,48.2,88,30.05,10.0,Calm,Calm,-,N/A,,Clear,0,2013-09-30 06:55:00
3:15 AM,50.4,47.3,89,30.05,10.0,Calm,Calm,-,N/A,,Clear,0,2013-09-30 07:15:00
3:35 AM,51.1,48.2,90,30.04,10.0,SSE,4.6,-,N/A,,Clear,150,2013-09-30 07:35:00
3:55 AM,50.7,47.8,90,30.04,10.0,SE,3.5,-,N/A,,Clear,130,2013-09-30 07:55:00
4:15 AM,49.6,46.8,90,30.05,10.0,SE,3.5,-,N/A,,Clear,140,2013-09-30 08:15:00
4:35 AM,49.3,46.4,90,30.05,10.0,SSE,3.5,-,N/A,,Clear,150,2013-09-30 08:35:00
4:55 AM,49.3,46.4,90,30.05,10.0,SE,4.6,-,N/A,,Clear,140,2013-09-30 08:55:00
5:15 AM,49.3,46.4,90,30.05,10.0,SE,3.5,-,N/A,,Scattered Clouds,140,2013-09-30 09:15:00
5:35 AM,49.3,46.4,90,30.05,10.0,SE,3.5,-,N/A,,Clear,140,2013-09-30 09:35:00
5:55 AM,49.3,46.4,90,30.05,10.0,SE,4.6,-,N/A,,Clear,140,2013-09-30 09:55:00
6:15 AM,49.3,46.4,90,30.05,10.0,SSE,3.5,-,N/A,,Clear,150,2013-09-30 10:15:00
6:35 AM,49.3,46.4,90,30.05,10.0,SE,3.5,-,N/A,,Clear,130,2013-09-30 10:35:00
6:55 AM,49.3,46.6,90,30.06,10.0,Calm,Calm,-,N/A,,Clear,0,2013-09-30 10:55:00
7:15 AM,49.3,46.6,90,30.06,10.0,Calm,Calm,-,N/A,,Scattered Clouds,0,2013-09-30 11:15:00
7:35 AM,49.3,46.8,91,30.07,10.0,SE,3.5,-,N/A,,Mostly Cloudy,140,2013-09-30 11:35:00
7:55 AM,49.3,46.8,91,30.07,10.0,SSE,4.6,-,N/A,,Scattered Clouds,160,2013-09-30 11:55:00
8:15 AM,49.3,46.6,90,30.08,10.0,SSE,4.6,-,N/A,,Clear,150,2013-09-30 12:15:00
8:35 AM,51.8,49.1,90,30.08,10.0,SSE,3.5,-,N/A,,Clear,160,2013-09-30 12:35:00
8:55 AM,54.5,50.9,88,30.08,10.0,Calm,Calm,-,N/A,,Clear,0,2013-09-30 12:55:00
9:15 AM,56.8,51.3,82,30.07,10.0,Calm,Calm,-,N/A,,Clear,0,2013-09-30 13:15:00
9:35 AM,59.4,51.1,74,30.07,10.0,South,4.6,-,N/A,,Clear,190,2013-09-30 13:35:00
9:55 AM,-9999,-9999,N/A,30.07,10.0,SSW,3.5,-,N/A,,Clear,200,2013-09-30 13:55:00
10:15 AM,-9999,-9999,N/A,30.06,10.0,SSW,3.5,-,N/A,,Clear,200,2013-09-30 14:15:00
10:35 AM,-9999,-9999,N/A,30.06,10.0,SSW,6.9,-,N/A,,Clear,210,2013-09-30 14:35:00
10:55 AM,-9999,-9999,N/A,30.06,10.0,SSW,6.9,-,N/A,,Clear,200,2013-09-30 14:55:00
11:15 AM,-9999,-9999,N/A,30.05,10.0,SSW,6.9,-,N/A,,Clear,210,2013-09-30 15:15:00
11:35 AM,-9999,-9999,N/A,30.05,10.0,South,4.6,-,N/A,,Clear,190,2013-09-30 15:35:00
11:55 AM,-9999,-9999,N/A,30.05,10.0,South,3.5,-,N/A,,Clear,190,2013-09-30 15:55:00
12:15 PM,-9999,-9999,N/A,30.04,10.0,SW,5.8,-,N/A,,Clear,230,2013-09-30 16:15:00
12:35 PM,-9999,-9999,N/A,30.04,10.0,WSW,4.6,-,N/A,,Clear,250,2013-09-30 16:35:00
12:55 PM,-9999,-9999,N/A,30.03,10.0,Calm,Calm,-,N/A,,Clear,0,2013-09-30 16:55:00
1:15 PM,-9999,-9999,N/A,30.03,10.0,South,4.6,-,N/A,,Clear,190,2013-09-30 17:15:00
1:35 PM,-9999,-9999,N/A,30.01,10.0,SW,3.5,-,N/A,,Clear,230,2013-09-30 17:35:00
1:55 PM,-9999,-9999,N/A,30.01,10.0,West,3.5,-,N/A,,Clear,280,2013-09-30 17:55:00
2:15 PM,-9999,-9999,N/A,30.00,10.0,West,3.5,-,N/A,,Clear,280,2013-09-30 18:15:00
2:35 PM,-9999,-9999,N/A,30.00,10.0,West,4.6,-,N/A,,Clear,260,2013-09-30 18:35:00
2:55 PM,-9999,-9999,N/A,30.00,10.0,West,4.6,-,N/A,,Clear,270,2013-09-30 18:55:00
3:15 PM,-9999,-9999,N/A,30.00,10.0,NW,3.5,-,N/A,,Clear,310,2013-09-30 19:15:00
3:35 PM,-9999,-9999,N/A,29.99,10.0,SW,4.6,-,N/A,,Clear,220,2013-09-30 19:35:00
3:55 PM,-9999,-9999,N/A,29.99,10.0,WSW,3.5,-,N/A,,Clear,250,2013-09-30 19:55:00
4:15 PM,-9999,-9999,N/A,29.99,10.0,WSW,4.6,-,N/A,,Clear,250,2013-09-30 20:15:00
4:35 PM,-9999,-9999,N/A,29.98,10.0,SW,3.5,-,N/A,,Clear,230,2013-09-30 20:35:00
4:55 PM,-9999,-9999,N/A,29.98,10.0,Calm,Calm,-,N/A,,Clear,0,2013-09-30 20:55:00
5:15 PM,-9999,-9999,N/A,29.97,10.0,Calm,Calm,-,N/A,,Clear,0,2013-09-30 21:15:00
5:35 PM,-9999,-9999,N/A,29.97,7.0,Calm,Calm,-,N/A,,Clear,0,2013-09-30 21:35:00
5:55 PM,-9999,-9999,N/A,29.97,10.0,Calm,Calm,-,N/A,,Clear,0,2013-09-30 21:55:00
6:15 PM,-9999,-9999,N/A,29.97,10.0,Calm,Calm,-,N/A,,Clear,0,2013-09-30 22:15:00
6:35 PM,-9999,-9999,N/A,29.97,10.0,Calm,Calm,-,N/A,,Clear,0,2013-09-30 22:35:00
6:55 PM,-9999,-9999,N/A,29.98,10.0,Calm,Calm,-,N/A,,Clear,0,2013-09-30 22:55:00
7:15 PM,60.8,51.8,72,29.98,10.0,Calm,Calm,-,N/A,,Clear,0,2013-09-30 23:15:00
7:35 PM,59.4,53.1,80,29.97,10.0,Calm,Calm,-,N/A,,Clear,0,2013-09-30 23:35:00
7:55 PM,56.8,51.8,83,29.97,10.0,Calm,Calm,-,N/A,,Clear,0,2013-09-30 23:55:00
8:35 PM,56.7,52.3,85,29.98,10.0,Calm,Calm,-,N/A,,Clear,0,2013-10-01 00:35:00
8:55 PM,54.5,50.7,87,29.99,10.0,Calm,Calm,-,N/A,,Clear,0,2013-10-01 00:55:00
9:15 PM,56.8,52.9,87,29.99,10.0,Calm,Calm,-,N/A,,Clear,0,2013-10-01 01:15:00
9:35 PM,56.8,51.6,83,29.99,10.0,Calm,Calm,-,N/A,,Clear,0,2013-10-01 01:35:00
9:55 PM,56.8,51.8,83,29.99,10.0,Calm,Calm,-,N/A,,Clear,0,2013-10-01 01:55:00
10:15 PM,56.1,51.4,84,29.99,10.0,Calm,Calm,-,N/A,,Clear,0,2013-10-01 02:15:00
10:35 PM,56.3,51.3,83,29.98,10.0,Calm,Calm,-,N/A,,Clear,0,2013-10-01 02:35:00
10:55 PM,54.5,50.0,85,29.98,10.0,Calm,Calm,-,N/A,,Clear,0,2013-10-01 02:55:00
11:15 PM,54.5,50.0,85,29.98,10.0,ESE,3.5,-,N/A,,Clear,120,2013-10-01 03:15:00
11:35 PM,54.5,50.4,86,29.98,10.0,Calm,Calm,-,N/A,,Clear,0,2013-10-01 03:35:00
11:55 PM,54.5,50.4,86,29.97,10.0,ESE,3.5,-,N/A,,Clear,120,2013-10-01 03:55:00